sat.trackr.live / text

‹ back to catalog

STARLINK-37274

NORAD 68724 · 2026-081AB

PAYLOAD ACTIVE UNKNOWN

§ Identity

Operator
Country
US
Launch date
2026-04-14
Launch site
AFETR
Launch vehicle
Mass (kg)
RCS (m²)

Purposes: comms

External: N2YO · Heavens-Above · Gunter

§ Orbital elements

Epoch: 2026-05-25T04:00:03.998880Z

Period
93.41 min
Inclination
53.1602°
Eccentricity
0.0001296
Mean motion
15.41535743 rev/d
Perigee alt
440.7 km
Apogee alt
442.5 km
Semi-major
6,819.7 km
B*
-4.7731e-2
RAAN
38.8098°
Arg perigee
107.1290°
Mean anomaly
209.3341°
Rev number
601

§ Raw data

STARLINK-372741 68724U 26081AB  26145.16671295 -.01831268  00000+0 -47731-1 0  99922 68724  53.1602  38.8098 0001296 107.1290 209.3341 15.41535743  6017

JSON: /api/v1/satellites/68724 · /tle

For live sub-satellite position, see the globe view (requires WebGL).

§ Visibility from observer

Set your observer location to see the next 7 days of passes ≥ 10°. The values pass through the URL so the page stays shareable.

No JS? Fill the form by hand. The geolocation button needs JavaScript.